• In Hungary
  • List of Countries
  • For 7 days
  • Water Temperature
  • Satellite Maps
  • Weather Map
  • News
  • Weather Widgets
  • user-avatar
    Login

    Hourly Weather Piwniczna Zdroj

    Today, 19 February, Monday

    Time Temperature Precipitation Wind Pressure Humidity
    00:00 -7°C° 0 mm 1 mps 707 mmHg 91%
    01:00 -7°C° 0 mm 1 mps 707 mmHg 91%
    02:00 -8°C° 0 mm 1 mps 707 mmHg 91%
    03:00 -8°C° 0 mm 1 mps 707 mmHg 91%
    04:00 -8°C° 0 mm 1 mps 706 mmHg 91%
    05:00 -8°C° 0 mm 1 mps 706 mmHg 90%
    06:00 -9°C° 0 mm 1 mps 706 mmHg 89%
    07:00 -9°C° 0 mm 1 mps 706 mmHg 88%
    08:00 -7°C° 0 mm 1 mps 706 mmHg 82%
    09:00 -4°C° 0 mm 1 mps 706 mmHg 76%
    10:00 -2°C° 0 mm 1 mps 706 mmHg 70%
    11:00 -1°C° 0 mm 1 mps 706 mmHg 70%
    12:00 0°C° 0 mm 1 mps 706 mmHg 69%
    13:00 0°C° 0 mm 1 mps 706 mmHg 68%
    14:00 0°C° 0 mm 1 mps 705 mmHg 71%
    15:00 -1°C° 0 mm 1 mps 705 mmHg 75%
    16:00 -1°C° 0 mm 1 mps 704 mmHg 78%
    17:00 -2°C° 0 mm 1 mps 704 mmHg 81%
    18:00 -4°C° 0 mm 1 mps 704 mmHg 85%
    19:00 -6°C° 0 mm 1 mps 704 mmHg 88%
    20:00 -6°C° 0 mm 1 mps 703 mmHg 88%
    21:00 -7°C° 0 mm 1 mps 703 mmHg 88%
    22:00 -7°C° 0 mm 1 mps 703 mmHg 87%
    23:00 -7°C° 0 mm 1 mps 703 mmHg 85%

    Tomorrow, 20 February, Tuesday

    Time Temperature Precipitation Wind Pressure Humidity
    00:00 -7°C° 0 mm 1 mps 703 mmHg 84%
    01:00 -7°C° 0 mm 1 mps 703 mmHg 82%
    02:00 -7°C° 0 mm 1 mps 702 mmHg 80%
    03:00 -7°C° 0 mm 1 mps 702 mmHg 79%
    04:00 -7°C° 0 mm 1 mps 702 mmHg 77%
    05:00 -7°C° 0 mm 1 mps 702 mmHg 77%
    06:00 -7°C° 0 mm 1 mps 702 mmHg 76%
    07:00 -7°C° 0 mm 1 mps 702 mmHg 75%
    08:00 -4°C° 0 mm 1 mps 702 mmHg 72%
    09:00 -2°C° 0 mm 1 mps 702 mmHg 69%
    10:00 -1°C° 0 mm 1 mps 702 mmHg 66%
    11:00 0°C° 0 mm 1 mps 702 mmHg 66%
    12:00 -1°C° 0 mm 2 mps 702 mmHg 66%
    13:00 -1°C° 0 mm 2 mps 702 mmHg 66%
    14:00 -1°C° 0 mm 2 mps 702 mmHg 70%
    15:00 -2°C° 0 mm 2 mps 701 mmHg 74%
    16:00 -3°C° 0 mm 2 mps 701 mmHg 78%
    17:00 -3°C° 0 mm 2 mps 701 mmHg 82%
    18:00 -4°C° 0 mm 2 mps 701 mmHg 85%
    19:00 -5°C° 0 mm 2 mps 701 mmHg 88%
    20:00 -5°C° 0 mm 2 mps 701 mmHg 88%
    21:00 -6°C° 0 mm 2 mps 701 mmHg 88%
    22:00 -6°C° 0 mm 2 mps 701 mmHg 88%
    23:00 -6°C° 0 mm 2 mps 701 mmHg 89%

    Day after tomorrow, 21 February, Wednesday

    Time Temperature Precipitation Wind Pressure Humidity
    00:00 -6°C° 0 mm 2 mps 701 mmHg 89%
    01:00 -6°C° 0 mm 2 mps 701 mmHg 90%
    02:00 -6°C° 0 mm 2 mps 701 mmHg 90%
    03:00 -6°C° 0 mm 2 mps 701 mmHg 90%
    04:00 -6°C° 0 mm 2 mps 701 mmHg 91%
    05:00 -6°C° 0 mm 2 mps 701 mmHg 91%
    06:00 -6°C° 0 mm 2 mps 701 mmHg 91%
    07:00 -6°C° 0 mm 2 mps 701 mmHg 90%
    08:00 -6°C° 0 mm 2 mps 702 mmHg 88%
    09:00 -5°C° 0 mm 2 mps 702 mmHg 86%
    10:00 -4°C° 0 mm 2 mps 702 mmHg 83%
    11:00 -4°C° 0 mm 2 mps 702 mmHg 82%
    12:00 -4°C° 0 mm 2 mps 702 mmHg 81%
    13:00 -3°C° 0 mm 2 mps 702 mmHg 79%
    14:00 -4°C° 0 mm 3 mps 701 mmHg 80%
    15:00 -5°C° 0 mm 3 mps 701 mmHg 81%
    16:00 -5°C° 0 mm 3 mps 701 mmHg 82%
    17:00 -5°C° 0 mm 2 mps 701 mmHg 84%
    18:00 -5°C° 0 mm 2 mps 701 mmHg 86%
    19:00 -6°C° 0 mm 2 mps 701 mmHg 88%
    20:00 -6°C° 0 mm 2 mps 701 mmHg 89%
    21:00 -6°C° 0 mm 2 mps 702 mmHg 89%
    22:00 -6°C° 0 mm 2 mps 702 mmHg 90%
    23:00 -6°C° 0 mm 2 mps 701 mmHg 90%

    22 February, Thursday

    Time Temperature Precipitation Wind Pressure Humidity
    00:00 -6°C° 0 mm 2 mps 701 mmHg 91%
    01:00 -6°C° 0 mm 2 mps 701 mmHg 91%
    02:00 -6°C° 0 mm 2 mps 701 mmHg 91%
    03:00 -6°C° 0 mm 2 mps 701 mmHg 91%
    04:00 -7°C° 0 mm 3 mps 701 mmHg 91%
    05:00 -7°C° 0 mm 3 mps 701 mmHg 91%
    06:00 -7°C° 0 mm 3 mps 701 mmHg 91%
    07:00 -7°C° 0 mm 3 mps 700 mmHg 91%
    08:00 -7°C° 0 mm 3 mps 700 mmHg 88%
    09:00 -6°C° 0 mm 3 mps 700 mmHg 86%
    10:00 -6°C° 0 mm 3 mps 700 mmHg 83%
    11:00 -5°C° 0.1 mm 3 mps 700 mmHg 82%
    12:00 -5°C° 0.1 mm 3 mps 700 mmHg 81%
    13:00 -5°C° 0.1 mm 3 mps 700 mmHg 80%
    14:00 -5°C° 0.1 mm 3 mps 700 mmHg 81%
    15:00 -5°C° 0.1 mm 3 mps 700 mmHg 83%
    16:00 -5°C° 0.1 mm 3 mps 699 mmHg 84%
    17:00 -6°C° 0.1 mm 3 mps 699 mmHg 86%
    18:00 -6°C° 0.1 mm 3 mps 699 mmHg 87%
    19:00 -6°C° 0.1 mm 3 mps 699 mmHg 89%
    20:00 -7°C° 0.3 mm 3 mps 699 mmHg 89%
    21:00 -7°C° 0.3 mm 3 mps 699 mmHg 90%
    22:00 -7°C° 0.3 mm 3 mps 699 mmHg 91%
    23:00 -7°C° 0.2 mm 3 mps 699 mmHg 91%

    23 February, Friday

    Time Temperature Precipitation Wind Pressure Humidity
    00:00 -6°C° 0.2 mm 2 mps 699 mmHg 91%
    01:00 -6°C° 0.2 mm 2 mps 698 mmHg 91%
    02:00 -6°C° 0.2 mm 2 mps 698 mmHg 91%
    03:00 -7°C° 0.2 mm 3 mps 697 mmHg 91%
    04:00 -7°C° 0.2 mm 3 mps 697 mmHg 91%
    05:00 -7°C° 0.3 mm 3 mps 697 mmHg 91%
    06:00 -7°C° 0.3 mm 3 mps 697 mmHg 91%
    07:00 -8°C° 0.3 mm 3 mps 697 mmHg 91%
    08:00 -7°C° 0.4 mm 3 mps 697 mmHg 90%
    09:00 -7°C° 0.4 mm 3 mps 697 mmHg 89%
    10:00 -7°C° 0.4 mm 3 mps 696 mmHg 88%
    11:00 -7°C° 0.4 mm 3 mps 696 mmHg 87%
    12:00 -8°C° 0.4 mm 4 mps 696 mmHg 87%
    13:00 -8°C° 0.4 mm 4 mps 696 mmHg 86%
    14:00 -8°C° 0.2 mm 4 mps 695 mmHg 87%
    15:00 -8°C° 0.2 mm 4 mps 695 mmHg 87%
    16:00 -9°C° 0.2 mm 4 mps 695 mmHg 88%
    17:00 -9°C° 0.2 mm 4 mps 695 mmHg 89%
    18:00 -10°C° 0.2 mm 4 mps 694 mmHg 89%
    19:00 -10°C° 0.2 mm 4 mps 694 mmHg 90%
    20:00 -11°C° 0.2 mm 4 mps 694 mmHg 90%
    21:00 -11°C° 0.2 mm 4 mps 694 mmHg 90%
    22:00 -11°C° 0.2 mm 4 mps 694 mmHg 89%
    23:00 -12°C° 0.2 mm 4 mps 694 mmHg 89%

    24 February, Saturday

    Time Temperature Precipitation Wind Pressure Humidity
    00:00 -12°C° 0.2 mm 4 mps 693 mmHg 88%
    01:00 -12°C° 0.2 mm 4 mps 693 mmHg 88%
    02:00 -14°C° 0.1 mm 4 mps 693 mmHg 87%
    03:00 -14°C° 0.1 mm 4 mps 693 mmHg 87%
    04:00 -15°C° 0.1 mm 4 mps 693 mmHg 86%
    05:00 -15°C° 0.1 mm 4 mps 694 mmHg 86%
    06:00 -16°C° 0.1 mm 4 mps 694 mmHg 86%
    07:00 -17°C° 0.1 mm 4 mps 695 mmHg 86%
    08:00 -16°C° 0 mm 4 mps 695 mmHg 82%
    09:00 -16°C° 0 mm 4 mps 696 mmHg 79%
    10:00 -15°C° 0 mm 4 mps 696 mmHg 76%
    11:00 -14°C° 0 mm 4 mps 697 mmHg 73%
    12:00 -14°C° 0 mm 4 mps 697 mmHg 71%
    13:00 -12°C° 0 mm 4 mps 697 mmHg 69%
    14:00 -14°C° 0 mm 4 mps 697 mmHg 68%
    15:00 -14°C° 0 mm 4 mps 697 mmHg 68%
    16:00 -13°C° 0 mm 3 mps 697 mmHg 67%
    17:00 -14°C° 0 mm 3 mps 697 mmHg 71%
    18:00 -15°C° 0 mm 2 mps 697 mmHg 74%
    19:00 -16°C° 0 mm 2 mps 697 mmHg 78%
    20:00 -16°C° 0 mm 2 mps 697 mmHg 77%
    21:00 -16°C° 0 mm 2 mps 698 mmHg 77%
    22:00 -16°C° 0 mm 2 mps 698 mmHg 76%
    23:00 -17°C° 0 mm 2 mps 697 mmHg 77%
    Show more